Wellsville, NY

8:51 AM EDT on May 30, 2017 (GMT -0400)
Wellsville Municipal-Tarantine

Weather History for KELZ - June, 2014

Change the Weather History Date:

Saturday, June 7, 2014

  Actual Average (KDSV) Record (KDSV)
Temperature  
Mean Temperature 60 °F -  
Max Temperature 77 °F 74 °F 92 °F (1955)
Min Temperature 46 °F 52 °F 39 °F (1958)
Degree Days  
Heating Degree Days 4    
Growing Degree Days 10 (Base 50)    
Moisture  
Dew Point 45 °F    
Average Humidity 56    
Maximum Humidity 90    
Minimum Humidity 32    
Precipitation  
Precipitation 0.00 in - - ()
Sea Level Pressure  
Sea Level Pressure 30.05 in    
Wind  
Wind Speed 2 mph (NE)    
Max Wind Speed 6 mph    
Max Gust Speed -    
Visibility 10 miles    
Events      
Averages and records for this station are not official NWS values.
T = Trace of Precipitation, MM = Missing Value Source: NWS Daily Summary

Daily Weather History Graph

Daily Weather History Graph

Search for Another Location

Airport or City:

Trip Planner

Search our weather history database for the weather conditions in past years. The results will help you decide how hot, cold, wet, or windy it might be!

Date:

Astronomy

Jun. 07, 2014 Rise Set
Actual Time 5:36 AM EDT 8:45 PM EDT
Civil Twilight 5:02 AM EDT 9:19 PM EDT
Nautical Twilight 4:18 AM EDT 10:03 PM EDT
Astronomical Twilight 3:26 AM EDT 10:56 PM EDT
Moon 2:55 PM EDT (6/7) 2:03 AM EDT (6/7)
Length of Visible Light 16h 17m
Length of Day
15h 09m
Waxing Gibbous, 67% of the Moon is Illuminated
Jun 7
Waxing Gibbous
Jun 13
Full
Jun 19
Last Quarter
Jun 27
New
Jul 5
First Quarter

Hourly Weather History & Observations

Time (EDT) Temp. Dew Point Humidity Pressure Visibility Wind Dir Wind Speed Gust Speed Precip Events Conditions
12:56 AM 50.0 °F 42.1 °F 74% 30.09 in 10.0 mi WNW 3.5 mph - N/A   Clear
2:56 AM 50.0 °F 42.1 °F 74% 30.07 in 10.0 mi Calm Calm - N/A   Clear
3:56 AM 50.0 °F 44.1 °F 80% 30.06 in 10.0 mi Calm Calm - N/A   Clear
4:56 AM 48.0 °F 44.1 °F 86% 30.06 in 10.0 mi Calm Calm - N/A   Clear
5:56 AM 46.9 °F 44.1 °F 90% 30.08 in 10.0 mi Calm Calm - N/A   Clear
6:56 AM 51.1 °F 46.0 °F 83% 30.09 in 10.0 mi Calm Calm - N/A   Clear
7:56 AM 54.0 °F 48.0 °F 80% 30.09 in 10.0 mi Calm Calm - N/A   Clear
8:56 AM 62.1 °F 51.1 °F 67% 30.09 in 10.0 mi Calm Calm - N/A   Clear
9:56 AM 66.0 °F 48.0 °F 52% 30.11 in 10.0 mi NNW 3.5 mph - N/A   Clear
10:56 AM 69.1 °F 46.9 °F 45% 30.12 in 10.0 mi Variable 3.5 mph - N/A   Clear
11:56 AM 71.1 °F 46.9 °F 42% 30.12 in 10.0 mi North - - N/A   Clear
12:56 PM 72.0 °F 45.0 °F 38% 30.10 in 10.0 mi NNW 3.5 mph - N/A   Clear
2:56 PM 73.9 °F 45.0 °F 35% 30.04 in 10.0 mi Calm Calm - N/A   Clear
3:56 PM 75.0 °F 43.0 °F 32% 30.02 in 10.0 mi Calm Calm - N/A   Clear
4:56 PM 75.9 °F 44.1 °F 32% 30.01 in 10.0 mi ESE 4.6 mph - N/A   Clear
5:56 PM 75.9 °F 45.0 °F 33% 30.01 in 10.0 mi East 4.6 mph - N/A   Clear
6:56 PM 75.9 °F 46.0 °F 35% 30.00 in 10.0 mi Calm Calm - N/A   Clear
7:56 PM 73.9 °F 42.1 °F 32% 30.00 in 10.0 mi Calm Calm - N/A   Clear
8:56 PM 69.1 °F 43.0 °F 39% 29.99 in 10.0 mi West 5.8 mph - N/A   Clear
9:56 PM 64.0 °F 46.0 °F 52% 30.01 in 10.0 mi Calm Calm - N/A   Clear
10:56 PM 62.1 °F 48.0 °F 60% 30.00 in 10.0 mi ESE 3.5 mph - N/A   Clear
11:56 PM 57.0 °F 48.9 °F 74% 29.99 in 10.0 mi ESE 3.5 mph - N/A   Clear